When you browse on this site, cookies collect data to enhance your experience and personalize the content and advertising you see.
Visit our Privacy Policy to learn more. By continuing to use the site, you agree to this use of cookies and data.
  • In Österreich
  • Länderverzeichnis
  • Für 7 Tage
  • Wassertemperatur
  • Wetterkarte
  • News
  • Widgets
  • user-avatar
    Anmelden

    Stündliche Wetter Rawson

    Heute, 15 Dezember, Sonntag

    Zeit Temperatur Niederschläge Wind Luftdruck Luftfeuchtigkeit
    00:00 +20°C° 0 mm 6 m/S 757 mmHg 32%
    01:00 +20°C° 0 mm 6 m/S 757 mmHg 33%
    02:00 +20°C° 0 mm 6 m/S 757 mmHg 34%
    03:00 +19°C° 0 mm 6 m/S 757 mmHg 35%
    04:00 +17°C° 0 mm 7 m/S 758 mmHg 36%
    05:00 +17°C° 0 mm 7 m/S 758 mmHg 37%
    06:00 +18°C° 0 mm 8 m/S 758 mmHg 35%
    07:00 +20°C° 0 mm 8 m/S 758 mmHg 34%
    08:00 +21°C° 0 mm 8 m/S 758 mmHg 31%
    09:00 +22°C° 0 mm 8 m/S 758 mmHg 29%
    10:00 +23°C° 0 mm 8 m/S 758 mmHg 26%
    11:00 +26°C° 0 mm 8 m/S 758 mmHg 23%
    12:00 +26°C° 0 mm 7 m/S 757 mmHg 21%
    13:00 +27°C° 0 mm 7 m/S 757 mmHg 19%
    14:00 +28°C° 0 mm 7 m/S 756 mmHg 17%
    15:00 +26°C° 0 mm 7 m/S 756 mmHg 24%
    16:00 +23°C° 0 mm 7 m/S 755 mmHg 30%
    17:00 +21°C° 0 mm 7 m/S 755 mmHg 37%
    18:00 +20°C° 0 mm 6 m/S 755 mmHg 39%
    19:00 +19°C° 0 mm 6 m/S 756 mmHg 42%
    20:00 +17°C° 0 mm 5 m/S 756 mmHg 45%
    21:00 +17°C° 0 mm 4 m/S 756 mmHg 48%
    22:00 +17°C° 0 mm 3 m/S 756 mmHg 51%
    23:00 +17°C° 0 mm 2 m/S 757 mmHg 53%

    Morgen, 16 Dezember, Montag

    Zeit Temperatur Niederschläge Wind Luftdruck Luftfeuchtigkeit
    00:00 +17°C° 0 mm 4 m/S 757 mmHg 48%
    01:00 +16°C° 0 mm 5 m/S 756 mmHg 42%
    02:00 +17°C° 0 mm 7 m/S 756 mmHg 36%
    03:00 +16°C° 0 mm 7 m/S 756 mmHg 38%
    04:00 +16°C° 0 mm 7 m/S 756 mmHg 40%
    05:00 +15°C° 0 mm 8 m/S 757 mmHg 41%
    06:00 +16°C° 0 mm 7 m/S 757 mmHg 40%
    07:00 +17°C° 0 mm 7 m/S 757 mmHg 38%
    08:00 +19°C° 0 mm 6 m/S 758 mmHg 36%
    09:00 +19°C° 0 mm 6 m/S 757 mmHg 35%
    10:00 +20°C° 0 mm 6 m/S 757 mmHg 34%
    11:00 +20°C° 0 mm 6 m/S 757 mmHg 33%
    12:00 +20°C° 0 mm 6 m/S 757 mmHg 32%
    13:00 +20°C° 0 mm 6 m/S 757 mmHg 31%
    14:00 +20°C° 0 mm 6 m/S 757 mmHg 31%
    15:00 +19°C° 0 mm 6 m/S 756 mmHg 32%
    16:00 +19°C° 0 mm 6 m/S 756 mmHg 34%
    17:00 +19°C° 0 mm 6 m/S 755 mmHg 36%
    18:00 +17°C° 0 mm 6 m/S 756 mmHg 39%
    19:00 +16°C° 0 mm 5 m/S 756 mmHg 43%
    20:00 +15°C° 0 mm 5 m/S 756 mmHg 47%
    21:00 +15°C° 0 mm 5 m/S 757 mmHg 46%
    22:00 +14°C° 0 mm 5 m/S 757 mmHg 46%
    23:00 +14°C° 0 mm 5 m/S 757 mmHg 45%

    übermorgen, 17 Dezember, Dienstag

    Zeit Temperatur Niederschläge Wind Luftdruck Luftfeuchtigkeit
    00:00 +14°C° 0 mm 5 m/S 757 mmHg 47%
    01:00 +14°C° 0 mm 5 m/S 757 mmHg 50%
    02:00 +13°C° 0 mm 5 m/S 756 mmHg 52%
    03:00 +13°C° 0 mm 5 m/S 756 mmHg 53%
    04:00 +13°C° 0 mm 5 m/S 756 mmHg 54%
    05:00 +13°C° 0 mm 5 m/S 756 mmHg 54%
    06:00 +15°C° 0 mm 6 m/S 756 mmHg 46%
    07:00 +19°C° 0 mm 6 m/S 756 mmHg 37%
    08:00 +21°C° 0 mm 6 m/S 756 mmHg 29%
    09:00 +23°C° 0 mm 7 m/S 755 mmHg 25%
    10:00 +24°C° 0 mm 7 m/S 754 mmHg 22%
    11:00 +27°C° 0 mm 7 m/S 754 mmHg 19%
    12:00 +28°C° 0 mm 6 m/S 753 mmHg 18%
    13:00 +29°C° 0 mm 6 m/S 752 mmHg 17%
    14:00 +32°C° 0 mm 6 m/S 751 mmHg 16%
    15:00 +32°C° 0 mm 6 m/S 750 mmHg 16%
    16:00 +33°C° 0 mm 7 m/S 749 mmHg 16%
    17:00 +33°C° 0 mm 7 m/S 748 mmHg 16%
    18:00 +30°C° 0 mm 7 m/S 748 mmHg 19%
    19:00 +28°C° 0 mm 7 m/S 748 mmHg 22%
    20:00 +27°C° 0 mm 7 m/S 748 mmHg 26%
    21:00 +26°C° 0 mm 7 m/S 748 mmHg 28%
    22:00 +24°C° 0 mm 6 m/S 748 mmHg 30%
    23:00 +25°C° 0 mm 5 m/S 749 mmHg 32%

    18 Dezember, Mittwoch

    Zeit Temperatur Niederschläge Wind Luftdruck Luftfeuchtigkeit
    00:00 +23°C° 0 mm 5 m/S 748 mmHg 35%
    01:00 +23°C° 0 mm 5 m/S 748 mmHg 37%
    02:00 +23°C° 0 mm 5 m/S 748 mmHg 39%
    03:00 +22°C° 0 mm 5 m/S 748 mmHg 41%
    04:00 +22°C° 0 mm 5 m/S 748 mmHg 42%
    05:00 +21°C° 0 mm 4 m/S 748 mmHg 44%
    06:00 +23°C° 0 mm 5 m/S 748 mmHg 39%
    07:00 +26°C° 0 mm 6 m/S 748 mmHg 35%
    08:00 +27°C° 0 mm 8 m/S 748 mmHg 30%
    09:00 +29°C° 0 mm 7 m/S 748 mmHg 28%
    10:00 +30°C° 0 mm 6 m/S 748 mmHg 26%
    11:00 +32°C° 0 mm 5 m/S 747 mmHg 23%
    12:00 +30°C° 0 mm 6 m/S 747 mmHg 24%
    13:00 +30°C° 0 mm 6 m/S 747 mmHg 26%
    14:00 +29°C° 0 mm 6 m/S 746 mmHg 27%
    15:00 +30°C° 0 mm 7 m/S 746 mmHg 24%
    16:00 +32°C° 0 mm 7 m/S 746 mmHg 22%
    17:00 +33°C° 0 mm 7 m/S 746 mmHg 19%
    18:00 +32°C° 0 mm 8 m/S 746 mmHg 20%
    19:00 +31°C° 0 mm 8 m/S 747 mmHg 21%
    20:00 +28°C° 0 mm 9 m/S 747 mmHg 22%
    21:00 +27°C° 0 mm 8 m/S 748 mmHg 23%
    22:00 +26°C° 0 mm 7 m/S 749 mmHg 23%
    23:00 +24°C° 0 mm 6 m/S 750 mmHg 24%

    19 Dezember, Donnerstag

    Zeit Temperatur Niederschläge Wind Luftdruck Luftfeuchtigkeit
    00:00 +23°C° 0 mm 5 m/S 750 mmHg 26%
    01:00 +22°C° 0 mm 5 m/S 750 mmHg 29%
    02:00 +20°C° 0 mm 4 m/S 751 mmHg 31%
    03:00 +19°C° 0 mm 4 m/S 751 mmHg 31%
    04:00 +17°C° 0 mm 5 m/S 752 mmHg 31%
    05:00 +16°C° 0 mm 6 m/S 753 mmHg 31%
    06:00 +19°C° 0 mm 6 m/S 753 mmHg 29%
    07:00 +20°C° 0 mm 7 m/S 754 mmHg 26%
    08:00 +21°C° 0 mm 7 m/S 754 mmHg 23%
    09:00 +22°C° 0 mm 8 m/S 755 mmHg 21%
    10:00 +23°C° 0 mm 8 m/S 755 mmHg 19%
    11:00 +23°C° 0 mm 8 m/S 755 mmHg 16%
    12:00 +24°C° 0 mm 8 m/S 755 mmHg 16%
    13:00 +26°C° 0 mm 7 m/S 755 mmHg 16%
    14:00 +26°C° 0 mm 7 m/S 755 mmHg 15%
    15:00 +24°C° 0 mm 7 m/S 755 mmHg 20%
    16:00 +22°C° 0 mm 6 m/S 755 mmHg 25%
    17:00 +20°C° 0 mm 6 m/S 755 mmHg 30%
    18:00 +19°C° 0 mm 6 m/S 756 mmHg 33%
    19:00 +17°C° 0 mm 5 m/S 756 mmHg 36%
    20:00 +16°C° 0 mm 5 m/S 756 mmHg 39%
    21:00 +16°C° 0 mm 5 m/S 757 mmHg 39%
    22:00 +16°C° 0 mm 5 m/S 757 mmHg 39%
    23:00 +16°C° 0 mm 5 m/S 758 mmHg 39%

    20 Dezember, Freitag

    Zeit Temperatur Niederschläge Wind Luftdruck Luftfeuchtigkeit
    00:00 +16°C° 0 mm 5 m/S 758 mmHg 40%
    01:00 +17°C° 0 mm 4 m/S 758 mmHg 41%
    02:00 +17°C° 0 mm 4 m/S 758 mmHg 43%
    03:00 +17°C° 0.1 mm 4 m/S 759 mmHg 47%
    04:00 +17°C° 0.1 mm 4 m/S 759 mmHg 51%
    05:00 +17°C° 0.1 mm 4 m/S 759 mmHg 55%
    06:00 +18°C° 0.1 mm 4 m/S 759 mmHg 48%
    07:00 +19°C° 0.1 mm 4 m/S 760 mmHg 41%
    08:00 +20°C° 0.1 mm 5 m/S 760 mmHg 35%
    09:00 +21°C° 0 mm 5 m/S 760 mmHg 31%
    10:00 +22°C° 0 mm 5 m/S 760 mmHg 26%
    11:00 +23°C° 0 mm 5 m/S 760 mmHg 22%
    12:00 +23°C° 0 mm 5 m/S 760 mmHg 24%
    13:00 +23°C° 0 mm 5 m/S 760 mmHg 26%
    14:00 +23°C° 0 mm 6 m/S 759 mmHg 27%
    15:00 +22°C° 0 mm 6 m/S 759 mmHg 31%
    16:00 +21°C° 0 mm 6 m/S 759 mmHg 35%
    17:00 +20°C° 0 mm 6 m/S 759 mmHg 38%
    18:00 +19°C° 0 mm 5 m/S 759 mmHg 44%
    19:00 +17°C° 0 mm 5 m/S 759 mmHg 50%
    20:00 +15°C° 0 mm 4 m/S 759 mmHg 56%
    21:00 +15°C° 0 mm 4 m/S 760 mmHg 59%
    22:00 +15°C° 0 mm 4 m/S 760 mmHg 61%
    23:00 +16°C° 0 mm 3 m/S 760 mmHg 64%
    Mehr zeigen